AirNav   Everest Fuels
 
 731 users online  

PS13 Boeing Helicopters Center 3 South Heliport
Ridley Park, Pennsylvania, USA

GOING TO RIDLEY PARK?


FAA INFORMATION EFFECTIVE 31 DECEMBER 2020

Location

FAA Identifier: PS13
Lat/Long: 39-51-33.4050N 075-19-10.6760W
39-51.556750N 075-19.177933W
39.8592792,-75.3196322
(estimated)
Elevation: 10 ft. / 3.0 m (surveyed)
Variation: 11W (1985)
Time zone: UTC -5 (UTC -4 during Daylight Saving Time)
Zip code: 19078

Heliport Operations

Heliport use: Private use. Permission required prior to landing
Activation date: 12/1974
Control tower: no
ARTCC: NEW YORK CENTER
FSS: WILLIAMSPORT FLIGHT SERVICE STATION
Attendance: DAYLIGHT HOURS
Wind indicator: yes
Segmented circle: yes

Heliport Communications

WX ASOS at PHL (4 nm E): PHONE 215-492-9617
WX AWOS-3T at OQN (14 nm NW): 121.4 ((610) 692-6190)
WX AWOS-3 at LOM (17 nm N): 118.925 (215-646-1068)
WX ASOS at ILG (17 nm SW): PHONE 302-328-1536
WX ASOS at PNE (20 nm NE): 121.15 (215-677-0146)

Nearby radio navigation aids

VOR radial/distance  VOR name  Freq  Var
OODr007/13.4WOODSTOWN VORTAC112.8010W
MXEr111/16.5MODENA VORTAC113.2009W
DQOr061/17.1DUPONT VORTAC114.0010W
PTWr162/24.4POTTSTOWN VORTAC116.5009W
VCNr330/25.2CEDAR LAKE VOR/DME115.2010W
ARDr229/30.3YARDLEY VOR/DME108.2010W
GXUr267/34.5MC GUIRE VORTAC110.6012W
ENOr023/38.7SMYRNA VORTAC111.4009W

 
NDB name  Hdg/Dist  Freq  Var  ID
AMBLER198/16.127512WING .. -. --.
RAINBOW353/27.836311WRNB .-. -. -...

Heliport Services

Airframe service: NONE
Powerplant service: NONE

Runway Information

Helipad H1

Dimensions: 100 x 100 ft. / 30 x 30 m
Surface: asphalt
Traffic pattern: leftleft
Obstructions: tower, lighted, 400 ft. from runway

Helipad H2

Dimensions: 100 x 100 ft. / 30 x 30 m
Surface: asphalt
Traffic pattern: leftleft
Obstructions: tower, lighted, 400 ft. from runway

Heliport Ownership and Management from official FAA records

Ownership: Privately-owned
Manager: BRYAN SPADT
PO BOX 16858
PHILADELPHIA, PA 19142
Phone 610-591-5635

Heliport Operational Statistics

Aircraft based on the field: 1
Helicopters: 1
    

Additional Remarks

FOR CD CTC PHILADELPHIA APCH AT 800-354-9884.

Instrument Procedures

There are no published instrument procedures at PS13.

Some nearby airports with instrument procedures:

KPHL - Philadelphia International Airport (4 nm E)
7N7 - Spitfire Aerodrome (8 nm SW)
KOQN - Brandywine Regional Airport (14 nm NW)
17N - Cross Keys Airport (16 nm SE)
KLOM - Wings Field Airport (17 nm N)
KILG - New Castle Airport (17 nm SW)
19N - Camden County Airport (18 nm E)
KPNE - Northeast Philadelphia Airport (20 nm NE)
 
Loc | Ops | Rwys | IFR | FBO | Links
Com | Nav | Svcs | Stats | Notes
Area around PS13 (Boeing Helicopters Center 3 South Heliport)
 
Road maps at: MapQuest Bing Google
 
Aerial photo
No photo
 
Sectional chart

 
Airport distance calculator
Flying to Boeing Helicopters Center 3 South Heliport? Find the distance to fly.

From to PS13

Sunrise and sunset
Times for 16-Jan-2021
 Local
(UTC-5)
 Zulu
(UTC)
Morning civil twilight06:5211:52
Sunrise07:2212:22
Sunset17:0122:01
Evening civil twilight17:3022:30

Current date and time
Zulu (UTC)  16-Jan-2021 05:22:25
Local (UTC-5)  16-Jan-2021 00:22:25
 
METAR
KPHL 
4nm E 
160502Z 25006KT 8SM -RA SCT011 OVC040 08/07 A2968 RMK AO2 P0000 T00830067
KOQN 
14nm NW 
160455Z AUTO 00000KT 4SM RA OVC038 07/06 A2967 RMK AO2 P0008
KLOM 
17nm N 
160455Z AUTO 00000KT 2 1/2SM RA BR SCT011 SCT022 OVC044 08/08 A2968 RMK AO2 P0010 T00830079
KILG 
17nm SW 
160451Z AUTO 00000KT 3SM RA BR SCT019 BKN032 OVC042 07/06 A2968 RMK AO2 SLP051 P0014 T00720061 401281017
KPNE 
19nm NE 
160454Z AUTO 35003KT 4SM -RA BR FEW040 OVC050 09/08 A2969 RMK AO2 RAB16 PRESFR SLP054 P0004 T00890078 401171011
TAF
KPHL 
4nm E 
160401Z 1604/1706 VRB06KT 6SM -RA BR SCT010 OVC050 TEMPO 1604/1606 4SM RA BR OVC010 FM160600 VRB03KT 2SM -RA BR OVC008 FM161000 30004KT 2SM -DZ BR OVC004 FM161400 28006KT P6SM BKN010 FM161700 28010KT P6SM BKN035 FM162000 26010KT P6SM BKN060
KILG 
17nm SW 
160402Z 1604/1624 14004KT 4SM -SHRA BR OVC035 TEMPO 1604/1606 OVC025 FM160600 VRB03KT 4SM -RA BR OVC015 TEMPO 1606/1609 2SM -RADZ BR OVC008 FM160900 30004KT 2SM -DZ BR OVC004 FM161400 29006KT P6SM BKN010 FM161700 28008KT P6SM BKN035 FM162000 27008KT P6SM BKN060
KPNE 
19nm NE 
160338Z 1604/1624 VRB03KT 6SM -RA BR OVC007 TEMPO 1604/1607 3SM -RA BR FM160700 VRB03KT 2SM -RA BR OVC005 FM161000 31004KT 2SM -DZ BR OVC004 FM161400 28006KT P6SM BKN010 FM161700 28010KT P6SM BKN035 FM162000 27008KT P6SM BKN060
NOTAMs
Click for the latest NOTAMs
NOTAMs are issued by the DoD/FAA and will open in a separate window not controlled by AirNav.

 

 
 

Would you like to see your business listed on this page?

 If your business provides an interesting product or service to pilots, flight crews, aircraft, or users of the Boeing Helicopters Center 3 South Heliport, you should consider listing it here.  To start the listing process, click on the button below
 
Add a business
 

Other Pages about Boeing Helicopters Center 3 South Heliport

Update a link
 
Copyright © AirNav, LLC. All rights reserved. Privacy Policy  Contact